Time,TemperatureF,DewpointF,PressureIn,WindDirection,WindDirectionDegrees,WindSpeedMPH,WindSpeedGustMPH,Humidity,HourlyPrecipIn,Conditions,Clouds,dailyrainin,SoftwareType,DateUTC
2015-07-03 00:04:00,83.9,76.0,30.09,ESE,109,5.0,5.0,78,0.00,,,0.00,weatherlink.com 1.10,2015-07-03 04:04:00,
2015-07-03 00:19:00,83.8,76.0,30.08,ESE,104,7.0,9.0,78,0.00,,,0.00,weatherlink.com 1.10,2015-07-03 04:19:00,
2015-07-03 00:34:00,83.7,77.0,30.07,ESE,110,5.0,9.0,79,0.00,,,0.00,weatherlink.com 1.10,2015-07-03 04:34:00,
2015-07-03 00:49:00,83.5,76.0,30.06,ESE,110,5.0,12.0,79,0.00,,,0.00,weatherlink.com 1.10,2015-07-03 04:49:00,
2015-07-03 01:04:00,83.5,77.0,30.05,ESE,120,5.0,13.0,80,0.00,,,0.00,weatherlink.com 1.10,2015-07-03 05:04:00,
2015-07-03 01:19:00,83.6,77.0,30.05,ESE,108,7.0,10.0,81,0.00,,,0.00,weatherlink.com 1.10,2015-07-03 05:19:00,
2015-07-03 01:34:00,83.4,77.0,30.04,East,100,9.0,15.0,81,0.00,,,0.00,weatherlink.com 1.10,2015-07-03 05:34:00,
2015-07-03 01:49:00,83.4,77.0,30.04,ESE,104,10.0,12.0,81,0.00,,,0.00,weatherlink.com 1.10,2015-07-03 05:49:00,
2015-07-03 02:04:00,83.5,78.0,30.04,ESE,115,8.0,13.0,82,0.00,,,0.00,weatherlink.com 1.10,2015-07-03 06:04:00,
2015-07-03 02:19:00,83.5,78.0,30.03,ESE,111,3.0,13.0,82,0.00,,,0.00,weatherlink.com 1.10,2015-07-03 06:19:00,
2015-07-03 02:34:00,83.3,77.0,30.03,ESE,105,7.0,12.0,81,0.00,,,0.00,weatherlink.com 1.10,2015-07-03 06:34:00,
2015-07-03 02:49:00,83.1,77.0,30.03,ESE,104,5.0,7.0,82,0.00,,,0.00,weatherlink.com 1.10,2015-07-03 06:49:00,
2015-07-03 03:04:00,83.0,77.0,30.02,ESE,114,5.0,8.0,83,0.00,,,0.00,weatherlink.com 1.10,2015-07-03 07:04:00,
2015-07-03 03:19:00,82.8,76.0,30.02,ESE,114,5.0,10.0,81,0.00,,,0.00,weatherlink.com 1.10,2015-07-03 07:19:00,
2015-07-03 03:34:00,82.9,77.0,30.02,ESE,103,3.0,7.0,82,0.00,,,0.00,weatherlink.com 1.10,2015-07-03 07:34:00,
2015-07-03 03:49:00,82.9,77.0,30.02,ESE,113,3.0,5.0,83,0.00,,,0.00,weatherlink.com 1.10,2015-07-03 07:49:00,
2015-07-03 04:04:00,83.1,78.0,30.02,ESE,119,3.0,10.0,84,0.00,,,0.00,weatherlink.com 1.10,2015-07-03 08:04:00,
2015-07-03 04:19:00,83.2,78.0,30.02,SE,126,3.0,8.0,84,0.00,,,0.00,weatherlink.com 1.10,2015-07-03 08:19:00,
2015-07-03 04:34:00,82.7,77.0,30.02,SE,138,4.0,7.0,83,0.00,,,0.00,weatherlink.com 1.10,2015-07-03 08:34:00,
2015-07-03 04:49:00,82.5,77.0,30.02,SE,133,2.0,6.0,83,0.00,,,0.00,weatherlink.com 1.10,2015-07-03 08:49:00,
2015-07-03 05:04:00,82.2,76.0,30.02,SE,133,4.0,5.0,82,0.00,,,0.00,weatherlink.com 1.10,2015-07-03 09:04:00,
2015-07-03 05:19:00,82.1,76.0,30.02,SE,132,1.0,5.0,82,0.00,,,0.00,weatherlink.com 1.10,2015-07-03 09:19:00,
2015-07-03 05:34:00,82.0,76.0,30.02,SE,134,1.0,5.0,82,0.00,,,0.00,weatherlink.com 1.10,2015-07-03 09:34:00,
2015-07-03 05:49:00,82.0,76.0,30.03,SE,133,2.0,4.0,81,0.00,,,0.00,weatherlink.com 1.10,2015-07-03 09:49:00,
2015-07-03 06:04:00,81.9,76.0,30.03,SE,134,2.0,5.0,81,0.00,,,0.00,weatherlink.com 1.10,2015-07-03 10:04:00,
2015-07-03 06:19:00,81.9,76.0,30.03,SE,134,1.0,4.0,81,0.00,,,0.00,weatherlink.com 1.10,2015-07-03 10:19:00,
2015-07-03 06:34:00,82.0,76.0,30.04,SE,134,2.0,5.0,81,0.00,,,0.00,weatherlink.com 1.10,2015-07-03 10:34:00,
2015-07-03 06:49:00,82.0,76.0,30.04,SE,134,1.0,4.0,82,0.00,,,0.00,weatherlink.com 1.10,2015-07-03 10:49:00,
2015-07-03 07:04:00,82.1,76.0,30.04,SE,134,3.0,5.0,82,0.00,,,0.00,weatherlink.com 1.10,2015-07-03 11:04:00,
2015-07-03 07:19:00,82.3,76.0,30.05,SE,134,0.0,3.0,81,0.00,,,0.00,weatherlink.com 1.10,2015-07-03 11:19:00,
2015-07-03 07:34:00,82.5,76.0,30.05,SE,134,0.0,4.0,81,0.00,,,0.00,weatherlink.com 1.10,2015-07-03 11:34:00,
2015-07-03 07:49:00,83.0,76.0,30.05,SE,134,3.0,5.0,79,0.00,,,0.00,weatherlink.com 1.10,2015-07-03 11:49:00,
2015-07-03 08:04:00,84.1,76.0,30.05,SE,133,3.0,5.0,77,0.00,,,0.00,weatherlink.com 1.10,2015-07-03 12:04:00,
2015-07-03 08:19:00,85.0,76.0,30.05,SSE,149,2.0,6.0,75,0.00,,,0.00,weatherlink.com 1.10,2015-07-03 12:19:00,
2015-07-03 08:34:00,86.0,77.0,30.05,SSW,197,7.0,7.0,74,0.00,,,0.00,weatherlink.com 1.10,2015-07-03 12:34:00,
2015-07-03 08:49:00,86.2,77.0,30.06,ESE,109,3.0,8.0,74,0.00,,,0.00,weatherlink.com 1.10,2015-07-03 12:49:00,
2015-07-03 09:04:00,85.6,77.0,30.07,ESE,120,4.0,8.0,75,0.00,,,0.00,weatherlink.com 1.10,2015-07-03 13:04:00,
2015-07-03 09:19:00,86.3,77.0,30.06,SE,127,3.0,5.0,74,0.00,,,0.00,weatherlink.com 1.10,2015-07-03 13:19:00,
2015-07-03 09:34:00,87.5,78.0,30.06,South,170,6.0,9.0,73,0.00,,,0.00,weatherlink.com 1.10,2015-07-03 13:34:00,
2015-07-03 09:49:00,88.6,78.0,30.06,ESE,107,12.0,13.0,71,0.00,,,0.00,weatherlink.com 1.10,2015-07-03 13:49:00,
2015-07-03 10:04:00,89.1,77.0,30.06,ENE,68,8.0,13.0,68,0.00,,,0.00,weatherlink.com 1.10,2015-07-03 14:04:00,
2015-07-03 10:19:00,89.2,77.0,30.06,ESE,103,7.0,12.0,68,0.00,,,0.00,weatherlink.com 1.10,2015-07-03 14:19:00,
2015-07-03 10:34:00,90.6,78.0,30.06,SSE,157,6.0,13.0,66,0.00,,,0.00,weatherlink.com 1.10,2015-07-03 14:34:00,
2015-07-03 10:49:00,91.7,79.0,30.06,SE,143,8.0,12.0,66,0.00,,,0.00,weatherlink.com 1.10,2015-07-03 14:49:00,
2015-07-03 11:04:00,92.5,79.0,30.07,ENE,65,7.0,11.0,64,0.00,,,0.00,weatherlink.com 1.10,2015-07-03 15:04:00,
2015-07-03 11:19:00,93.7,78.0,30.07,East,97,6.0,11.0,61,0.00,,,0.00,weatherlink.com 1.10,2015-07-03 15:19:00,
2015-07-03 11:34:00,93.2,79.0,30.07,East,95,3.0,11.0,64,0.00,,,0.00,weatherlink.com 1.10,2015-07-03 15:34:00,
2015-07-03 11:49:00,94.5,76.0,30.07,ESE,102,2.0,11.0,55,0.00,,,0.00,weatherlink.com 1.10,2015-07-03 15:49:00,
2015-07-03 12:04:00,95.8,77.0,30.08,ENE,57,7.0,13.0,55,0.00,,,0.00,weatherlink.com 1.10,2015-07-03 16:04:00,
2015-07-03 12:19:00,95.8,75.0,30.08,ESE,103,7.0,12.0,52,0.00,,,0.00,weatherlink.com 1.10,2015-07-03 16:19:00,
2015-07-03 12:34:00,95.8,79.0,30.08,ENE,64,3.0,12.0,58,0.00,,,0.00,weatherlink.com 1.10,2015-07-03 16:34:00,
2015-07-03 12:49:00,96.7,79.0,30.07,ENE,60,12.0,12.0,57,0.00,,,0.00,weatherlink.com 1.10,2015-07-03 16:49:00,
2015-07-03 13:04:00,97.6,79.0,30.07,East,79,7.0,13.0,56,0.00,,,0.00,weatherlink.com 1.10,2015-07-03 17:04:00,
2015-07-03 13:19:00,96.5,78.0,30.06,East,100,9.0,13.0,56,0.00,,,0.00,weatherlink.com 1.10,2015-07-03 17:19:00,
2015-07-03 13:34:00,97.0,78.0,30.06,East,91,7.0,15.0,55,0.00,,,0.00,weatherlink.com 1.10,2015-07-03 17:34:00,
2015-07-03 13:49:00,96.8,79.0,30.06,SE,131,9.0,16.0,57,0.00,,,0.00,weatherlink.com 1.10,2015-07-03 17:49:00,
2015-07-03 14:04:00,97.0,78.0,30.05,SE,134,9.0,16.0,55,0.00,,,0.00,weatherlink.com 1.10,2015-07-03 18:04:00,
2015-07-03 14:19:00,97.0,79.0,30.05,East,81,9.0,14.0,57,0.00,,,0.00,weatherlink.com 1.10,2015-07-03 18:19:00,
2015-07-03 14:34:00,96.9,79.0,30.03,ENE,68,7.0,14.0,56,0.00,,,0.00,weatherlink.com 1.10,2015-07-03 18:34:00,
2015-07-03 14:50:00,95.8,79.0,30.04,SE,129,7.0,17.0,59,0.00,,,0.00,weatherlink.com 1.10,2015-07-03 18:50:00,
2015-07-03 15:05:00,95.5,79.0,30.04,East,85,10.0,17.0,59,0.00,,,0.00,weatherlink.com 1.10,2015-07-03 19:05:00,
2015-07-03 15:20:00,95.6,79.0,30.03,East,92,10.0,18.0,59,0.00,,,0.00,weatherlink.com 1.10,2015-07-03 19:20:00,
2015-07-03 15:35:00,96.2,80.0,30.04,East,84,9.0,17.0,59,0.00,,,0.00,weatherlink.com 1.10,2015-07-03 19:35:00,
2015-07-03 15:50:00,95.2,79.0,30.04,East,100,8.0,18.0,59,0.00,,,0.00,weatherlink.com 1.10,2015-07-03 19:50:00,
2015-07-03 16:05:00,94.4,78.0,30.04,East,99,13.0,15.0,60,0.00,,,0.00,weatherlink.com 1.10,2015-07-03 20:05:00,
2015-07-03 16:20:00,94.2,79.0,30.04,ENE,66,10.0,14.0,62,0.00,,,0.00,weatherlink.com 1.10,2015-07-03 20:20:00,
2015-07-03 16:35:00,93.4,78.0,30.04,East,89,7.0,12.0,61,0.00,,,0.00,weatherlink.com 1.10,2015-07-03 20:35:00,
2015-07-03 16:50:00,93.5,78.0,30.05,East,82,6.0,10.0,61,0.00,,,0.00,weatherlink.com 1.10,2015-07-03 20:50:00,
2015-07-03 17:05:00,92.5,78.0,30.04,ESE,112,4.0,11.0,62,0.00,,,0.00,weatherlink.com 1.10,2015-07-03 21:05:00,
2015-07-03 17:20:00,92.0,79.0,30.04,ESE,119,5.0,9.0,65,0.00,,,0.00,weatherlink.com 1.10,2015-07-03 21:20:00,
2015-07-03 17:35:00,91.6,78.0,30.04,East,97,7.0,13.0,65,0.00,,,0.00,weatherlink.com 1.10,2015-07-03 21:35:00,
2015-07-03 17:50:00,90.3,78.0,30.04,ESE,105,7.0,11.0,67,0.00,,,0.00,weatherlink.com 1.10,2015-07-03 21:50:00,
2015-07-03 18:05:00,89.4,78.0,30.04,East,93,6.0,13.0,68,0.00,,,0.00,weatherlink.com 1.10,2015-07-03 22:05:00,
2015-07-03 18:20:00,88.6,79.0,30.03,ESE,114,4.0,11.0,72,0.00,,,0.00,weatherlink.com 1.10,2015-07-03 22:20:00,
2015-07-03 18:35:00,88.1,78.0,30.02,East,97,7.0,11.0,73,0.00,,,0.00,weatherlink.com 1.10,2015-07-03 22:35:00,
2015-07-03 18:50:00,87.9,79.0,30.02,ENE,60,9.0,16.0,74,0.00,,,0.00,weatherlink.com 1.10,2015-07-03 22:50:00,
2015-07-03 19:05:00,87.4,79.0,30.02,East,100,5.0,14.0,75,0.00,,,0.00,weatherlink.com 1.10,2015-07-03 23:05:00,
2015-07-03 19:20:00,87.3,79.0,30.02,East,91,10.0,14.0,76,0.00,,,0.00,weatherlink.com 1.10,2015-07-03 23:20:00,
2015-07-03 19:35:00,86.9,79.0,30.02,East,86,10.0,15.0,77,0.00,,,0.00,weatherlink.com 1.10,2015-07-03 23:35:00,
2015-07-03 19:50:00,86.6,79.0,30.03,ESE,120,10.0,13.0,77,0.00,,,0.00,weatherlink.com 1.10,2015-07-03 23:50:00,
2015-07-03 20:05:00,86.3,78.0,30.04,East,85,14.0,14.0,77,0.00,,,0.00,weatherlink.com 1.10,2015-07-04 00:05:00,
2015-07-03 20:20:00,86.1,79.0,30.04,ESE,115,7.0,10.0,78,0.00,,,0.00,weatherlink.com 1.10,2015-07-04 00:20:00,
2015-07-03 20:35:00,85.9,79.0,30.05,ESE,106,8.0,10.0,79,0.00,,,0.00,weatherlink.com 1.10,2015-07-04 00:35:00,
2015-07-03 20:50:00,85.7,79.0,30.05,East,88,6.0,10.0,80,0.00,,,0.00,weatherlink.com 1.10,2015-07-04 00:50:00,
2015-07-03 21:05:00,85.9,79.0,30.05,East,100,3.0,10.0,79,0.00,,,0.00,weatherlink.com 1.10,2015-07-04 01:05:00,
2015-07-03 21:20:00,85.7,79.0,30.06,ESE,123,5.0,13.0,79,0.00,,,0.00,weatherlink.com 1.10,2015-07-04 01:20:00,
2015-07-03 21:35:00,85.0,77.0,30.07,ESE,122,9.0,10.0,77,0.00,,,0.00,weatherlink.com 1.10,2015-07-04 01:35:00,
2015-07-03 21:50:00,85.1,78.0,30.07,ESE,103,4.0,10.0,79,0.00,,,0.00,weatherlink.com 1.10,2015-07-04 01:50:00,